GFSFLT2_prec_precacc_258.txt.gz
Total_Precipitation_Accumulation
10.57 7.27 6.42 5.67 6.33 4.11 1.79 1.64 1.82 2.19 2.31 2.33 2.63 2.99 2.05 1.53 0.97 0.74 0.73 0.72 0.38 0.34 0.29 0.40 0.58 0.54 0.23 0.26 0.29 0.32 0.39 1.06
6.98 5.70 4.95 4.65 4.82 5.36 3.72 2.50 2.16 1.89 1.86 1.82 1.74 2.23 2.13 1.50 1.02 0.76 0.83 0.72 0.50 0.40 0.50 0.63 0.58 0.55 0.55 0.47 0.36 0.28 0.15 0.29
3.73 2.64 1.87 2.18 2.33 2.73 3.35 3.29 2.69 2.72 2.92 2.12 1.68 1.56 2.09 1.76 1.31 1.02 1.09 0.90 0.70 0.56 0.65 0.66 0.54 0.45 0.32 0.29 0.24 0.25 0.18 0.26
1.70 1.17 0.75 0.69 0.82 0.90 1.42 2.18 2.54 2.26 3.59 2.51 2.17 1.34 1.57 1.50 1.69 1.50 1.55 1.45 0.80 0.85 0.69 0.50 0.38 0.27 0.18 0.13 0.10 0.22 0.25 0.36
1.22 1.09 0.92 0.83 0.65 0.64 0.75 1.37 2.17 2.47 2.73 2.57 2.59 1.72 1.99 1.73 1.93 1.50 1.33 2.02 1.24 1.18 0.81 0.67 0.47 0.43 0.37 0.38 0.38 0.37 0.54 0.57
0.47 0.73 0.77 1.04 0.90 0.71 0.86 1.34 2.10 2.26 1.91 1.73 2.21 1.72 1.99 1.86 1.69 1.52 1.28 2.02 1.58 1.43 1.00 0.91 0.92 0.94 0.93 0.91 0.85 0.58 0.48 0.49
0.50 0.41 0.70 0.80 0.98 1.09 1.10 1.19 1.45 1.83 1.68 1.01 1.69 1.77 1.65 2.14 2.23 2.03 1.57 2.11 1.43 1.03 0.93 0.83 0.84 0.96 0.97 0.89 0.84 0.92 0.63 0.75
0.65 0.62 0.63 0.63 0.77 0.81 1.01 1.28 1.76 1.60 1.61 1.15 1.20 1.53 1.95 2.59 2.50 2.28 1.64 1.67 1.66 1.38 0.90 0.88 0.82 1.02 0.94 0.88 0.76 0.84 0.63 0.61
0.70 1.14 0.62 0.47 0.54 0.67 0.66 0.77 1.15 1.27 1.40 1.22 1.03 1.18 1.50 2.02 2.21 2.05 1.84 1.75 1.48 1.74 1.52 1.26 1.23 1.33 1.04 0.98 0.73 0.75 0.54 0.49
0.70 1.33 0.99 0.62 0.52 0.76 0.74 0.94 1.15 1.37 1.64 1.57 1.15 1.17 1.59 1.89 1.96 2.16 2.43 2.71 2.43 2.16 2.24 1.77 1.40 1.49 1.42 1.00 0.83 0.72 0.65 0.33
0.53 0.86 1.10 1.06 1.03 1.14 1.08 1.10 1.33 1.49 1.66 1.90 1.89 2.12 2.37 2.31 2.34 2.70 3.07 3.07 2.80 2.40 1.94 1.81 1.45 1.45 1.61 1.34 1.08 0.78 0.80 0.68
0.59 0.76 1.25 1.74 1.20 0.85 1.07 1.39 1.30 1.31 1.34 1.66 1.79 1.72 2.13 2.46 2.55 2.24 2.38 2.58 2.58 2.50 2.48 2.30 1.94 1.73 1.83 1.85 1.47 1.29 1.03 0.95
0.65 1.02 1.03 0.77 0.67 0.70 0.93 1.09 1.25 1.37 1.22 1.43 1.88 1.91 2.04 2.62 2.96 3.13 2.61 2.07 2.30 2.42 2.55 2.42 2.24 1.99 2.39 2.41 1.88 1.36 1.17 0.93
0.34 0.23 0.33 0.41 0.51 0.66 0.84 0.96 1.22 1.31 1.47 1.40 1.69 1.80 2.11 2.18 2.56 2.88 2.76 2.24 1.83 1.70 2.11 2.72 2.95 2.74 2.76 2.76 2.62 2.33 1.72 1.34
0.14 0.25 0.45 0.42 0.44 0.61 0.83 1.20 1.47 1.39 1.42 1.24 1.29 1.61 1.97 2.29 2.55 2.56 2.38 2.18 2.04 2.14 2.46 2.88 2.80 2.90 2.75 3.01 2.83 2.25 1.72 1.51
0.22 0.27 0.32 0.27 0.40 0.63 0.65 0.71 0.78 0.66 0.63 0.74 0.80 1.24 1.90 2.59 3.06 2.94 3.15 3.44 3.02 2.85 2.63 2.99 3.60 3.97 4.43 3.84 3.04 2.68 2.36 2.32
0.16 0.30 0.36 0.29 0.40 0.75 0.86 0.84 0.64 0.56 0.56 0.70 0.82 1.05 1.47 2.02 2.68 3.21 3.51 3.59 3.47 3.39 3.24 3.33 3.41 3.31 3.54 3.70 4.05 3.74 3.12 2.53
0.17 0.19 0.32 0.34 0.35 0.61 1.04 1.47 1.73 1.80 1.48 1.07 0.85 1.03 1.31 1.72 2.09 2.44 3.16 3.47 3.42 3.19 3.32 3.24 2.95 3.01 3.38 3.43 2.97 2.73 2.69 2.63
0.27 0.19 0.20 0.24 0.28 0.29 0.45 0.76 1.11 1.60 2.26 3.04 2.92 2.38 2.10 2.31 2.54 2.48 2.73 3.14 3.93 3.63 3.65 3.64 3.74 3.10 2.74 2.67 2.55 2.42 2.17 2.31
0.39 0.37 0.36 0.23 0.24 0.34 0.49 0.59 0.75 1.09 1.24 1.58 2.41 3.18 2.86 3.17 3.64 3.93 3.36 3.14 3.72 4.11 3.80 3.72 4.28 4.34 3.82 3.28 2.86 2.64 2.77 2.80

GFSFLT2_prec_precacc_264.txt.gz
Total_Precipitation_Accumulation
10.57 7.27 6.42 5.67 6.33 4.11 1.79 1.64 1.82 2.19 2.31 2.33 2.63 2.99 2.05 1.53 0.97 0.74 0.73 0.72 0.38 0.34 0.29 0.40 0.58 0.54 0.23 0.26 0.29 0.32 0.39 1.06
6.98 5.70 4.95 4.65 4.82 5.36 3.72 2.50 2.16 1.89 1.86 1.82 1.74 2.23 2.13 1.50 1.02 0.77 0.83 0.72 0.50 0.40 0.50 0.63 0.58 0.55 0.55 0.47 0.36 0.28 0.15 0.29
3.73 2.64 1.87 2.18 2.33 2.73 3.35 3.29 2.69 2.72 2.92 2.12 1.72 1.57 2.11 1.78 1.37 1.09 1.18 1.05 0.77 0.57 0.66 0.67 0.58 0.52 0.42 0.38 0.28 0.27 0.19 0.26
1.70 1.17 0.75 0.74 0.84 0.95 1.47 2.23 2.57 2.27 3.60 2.54 2.23 1.43 1.70 1.63 1.81 1.68 1.77 1.77 0.93 0.96 0.89 0.71 0.64 0.63 0.56 0.51 0.58 0.66 0.47 0.51
1.22 1.09 0.93 0.92 0.75 0.82 1.05 1.63 2.35 2.64 2.84 2.67 2.68 1.82 2.10 1.83 2.01 1.61 1.49 2.22 1.42 1.39 1.00 0.78 0.67 0.68 0.70 0.78 0.67 0.67 0.88 1.00
0.47 0.74 0.83 1.12 1.06 0.88 1.04 1.43 2.19 2.36 1.98 1.81 2.26 1.74 2.01 1.89 1.74 1.59 1.35 2.09 1.67 1.53 1.09 1.01 1.01 1.00 1.00 1.03 0.94 0.69 0.67 0.70
0.50 0.42 0.78 0.94 1.13 1.26 1.30 1.37 1.63 1.99 1.80 1.13 1.76 1.80 1.65 2.15 2.25 2.04 1.57 2.12 1.43 1.05 0.95 0.89 0.91 1.04 1.04 0.97 0.92 1.00 0.71 0.84
0.65 0.64 0.74 0.79 0.93 1.02 1.18 1.48 2.00 1.77 1.70 1.20 1.22 1.53 1.95 2.59 2.50 2.28 1.64 1.67 1.66 1.38 0.90 0.88 0.83 1.03 0.96 0.90 0.79 0.90 0.67 0.65
0.70 1.19 0.66 0.57 0.65 0.80 0.74 0.84 1.18 1.27 1.40 1.22 1.03 1.18 1.50 2.02 2.21 2.05 1.84 1.75 1.48 1.74 1.52 1.26 1.23 1.33 1.04 0.98 0.73 0.75 0.54 0.49
0.76 1.37 1.01 0.64 0.53 0.76 0.74 0.94 1.15 1.37 1.64 1.57 1.15 1.17 1.59 1.89 1.96 2.16 2.43 2.71 2.43 2.16 2.24 1.77 1.40 1.49 1.42 1.00 0.83 0.72 0.65 0.33
0.53 0.86 1.10 1.06 1.03 1.14 1.08 1.10 1.33 1.49 1.66 1.90 1.89 2.12 2.37 2.31 2.34 2.70 3.07 3.07 2.80 2.40 1.94 1.81 1.45 1.45 1.61 1.34 1.08 0.78 0.80 0.68
0.59 0.76 1.25 1.74 1.20 0.85 1.07 1.39 1.30 1.31 1.34 1.66 1.79 1.72 2.13 2.46 2.55 2.24 2.38 2.58 2.58 2.50 2.48 2.30 1.94 1.73 1.83 1.85 1.47 1.29 1.03 0.95
0.65 1.02 1.03 0.77 0.67 0.70 0.93 1.09 1.25 1.37 1.22 1.43 1.88 1.91 2.04 2.62 2.96 3.13 2.61 2.07 2.30 2.42 2.55 2.42 2.24 1.99 2.39 2.41 1.88 1.36 1.17 0.93
0.34 0.23 0.33 0.41 0.51 0.66 0.84 0.96 1.22 1.31 1.47 1.40 1.69 1.80 2.11 2.18 2.56 2.88 2.76 2.24 1.83 1.70 2.11 2.72 2.95 2.74 2.76 2.76 2.62 2.33 1.72 1.34
0.14 0.25 0.45 0.42 0.44 0.61 0.83 1.20 1.47 1.39 1.42 1.24 1.29 1.61 1.97 2.29 2.55 2.56 2.38 2.18 2.04 2.14 2.46 2.88 2.80 2.90 2.75 3.01 2.84 2.25 1.72 1.51
0.22 0.27 0.32 0.27 0.40 0.63 0.65 0.71 0.78 0.66 0.63 0.74 0.80 1.24 1.90 2.59 3.06 2.94 3.15 3.44 3.02 2.85 2.63 2.99 3.60 3.97 4.43 3.84 3.05 2.68 2.37 2.33
0.16 0.30 0.36 0.29 0.40 0.75 0.86 0.84 0.64 0.56 0.56 0.70 0.82 1.05 1.47 2.02 2.68 3.21 3.51 3.59 3.47 3.39 3.24 3.33 3.41 3.31 3.54 3.70 4.05 3.74 3.12 2.54
0.17 0.19 0.32 0.34 0.35 0.61 1.04 1.47 1.73 1.80 1.48 1.07 0.85 1.03 1.31 1.72 2.09 2.44 3.16 3.47 3.42 3.19 3.32 3.24 2.95 3.01 3.38 3.43 2.97 2.74 2.69 2.64
0.27 0.19 0.20 0.24 0.28 0.29 0.45 0.76 1.11 1.60 2.26 3.04 2.92 2.38 2.10 2.31 2.54 2.48 2.73 3.14 3.93 3.63 3.65 3.64 3.74 3.10 2.74 2.67 2.55 2.43 2.18 2.32
0.39 0.37 0.36 0.23 0.24 0.34 0.49 0.59 0.75 1.09 1.24 1.58 2.41 3.18 2.86 3.17 3.64 3.93 3.36 3.14 3.72 4.11 3.80 3.72 4.28 4.34 3.82 3.28 2.86 2.64 2.78 2.81

GFSFLT2_prec_precacc_267.txt.gz
Total_Precipitation_Accumulation
10.57 7.27 6.42 5.67 6.33 4.11 1.79 1.64 1.82 2.19 2.31 2.33 2.63 2.99 2.05 1.53 0.97 0.74 0.73 0.72 0.39 0.34 0.29 0.40 0.58 0.54 0.23 0.26 0.29 0.32 0.39 1.06
6.98 5.70 4.95 4.65 4.82 5.36 3.72 2.50 2.16 1.89 1.86 1.82 1.74 2.24 2.16 1.54 1.05 0.78 0.83 0.73 0.52 0.40 0.50 0.63 0.58 0.56 0.57 0.48 0.38 0.29 0.16 0.30
3.73 2.64 1.87 2.18 2.33 2.73 3.35 3.29 2.69 2.72 2.92 2.15 1.79 1.61 2.16 1.84 1.39 1.10 1.18 1.05 0.77 0.57 0.66 0.67 0.58 0.53 0.45 0.47 0.38 0.35 0.25 0.32
1.70 1.17 0.76 0.74 0.85 0.96 1.50 2.23 2.57 2.27 3.60 2.55 2.25 1.45 1.72 1.63 1.81 1.68 1.77 1.77 0.93 0.96 0.89 0.71 0.64 0.63 0.56 0.52 0.63 0.84 0.80 0.78
1.23 1.09 0.94 0.99 0.83 0.91 1.10 1.64 2.35 2.64 2.84 2.67 2.68 1.83 2.11 1.84 2.01 1.61 1.49 2.22 1.42 1.39 1.00 0.78 0.67 0.68 0.70 0.78 0.68 0.70 1.01 1.16
0.53 0.79 0.86 1.22 1.17 1.02 1.08 1.45 2.19 2.36 1.98 1.81 2.26 1.75 2.02 1.89 1.74 1.59 1.35 2.09 1.67 1.53 1.09 1.01 1.01 1.00 1.00 1.03 0.94 0.70 0.69 0.71
0.53 0.45 0.81 0.96 1.17 1.33 1.36 1.40 1.63 1.99 1.80 1.14 1.77 1.81 1.66 2.15 2.25 2.04 1.57 2.12 1.43 1.05 0.95 0.89 0.91 1.04 1.04 0.97 0.92 1.00 0.71 0.84
0.65 0.66 0.77 0.84 0.99 1.06 1.21 1.50 2.00 1.78 1.71 1.20 1.22 1.53 1.95 2.59 2.50 2.28 1.64 1.67 1.66 1.38 0.90 0.88 0.83 1.03 0.96 0.90 0.79 0.90 0.67 0.65
0.72 1.20 0.67 0.60 0.66 0.81 0.75 0.84 1.18 1.27 1.40 1.22 1.03 1.18 1.50 2.02 2.21 2.05 1.84 1.75 1.48 1.74 1.52 1.26 1.23 1.33 1.04 0.98 0.73 0.75 0.54 0.49
0.78 1.39 1.02 0.65 0.53 0.76 0.74 0.94 1.15 1.37 1.64 1.57 1.15 1.17 1.59 1.89 1.96 2.16 2.43 2.71 2.43 2.16 2.24 1.77 1.40 1.49 1.42 1.00 0.83 0.72 0.65 0.33
0.53 0.86 1.10 1.06 1.03 1.14 1.08 1.10 1.33 1.49 1.66 1.90 1.89 2.12 2.37 2.31 2.34 2.70 3.07 3.07 2.80 2.40 1.94 1.81 1.45 1.45 1.61 1.34 1.08 0.78 0.80 0.68
0.59 0.76 1.25 1.74 1.20 0.85 1.07 1.39 1.30 1.31 1.34 1.66 1.79 1.72 2.13 2.46 2.55 2.24 2.38 2.58 2.58 2.50 2.48 2.30 1.94 1.73 1.83 1.85 1.47 1.29 1.03 0.95
0.65 1.02 1.03 0.77 0.67 0.70 0.93 1.09 1.25 1.37 1.22 1.43 1.88 1.91 2.04 2.62 2.96 3.13 2.61 2.07 2.30 2.42 2.55 2.42 2.24 1.99 2.39 2.41 1.88 1.36 1.17 0.93
0.34 0.23 0.33 0.41 0.51 0.66 0.84 0.96 1.22 1.31 1.47 1.40 1.69 1.80 2.11 2.18 2.56 2.88 2.76 2.24 1.83 1.70 2.11 2.72 2.95 2.74 2.76 2.76 2.62 2.33 1.72 1.34
0.14 0.25 0.45 0.42 0.44 0.61 0.83 1.20 1.47 1.39 1.42 1.24 1.29 1.61 1.97 2.29 2.55 2.56 2.38 2.18 2.04 2.14 2.46 2.88 2.80 2.90 2.75 3.01 2.84 2.25 1.72 1.51
0.22 0.27 0.32 0.27 0.40 0.63 0.65 0.71 0.78 0.66 0.63 0.74 0.80 1.24 1.90 2.59 3.06 2.94 3.15 3.44 3.02 2.85 2.63 2.99 3.60 3.97 4.43 3.84 3.05 2.69 2.38 2.33
0.16 0.30 0.36 0.29 0.40 0.75 0.86 0.84 0.64 0.56 0.56 0.70 0.82 1.05 1.47 2.02 2.68 3.21 3.51 3.59 3.47 3.39 3.24 3.33 3.41 3.31 3.54 3.70 4.05 3.74 3.12 2.55
0.17 0.19 0.32 0.34 0.35 0.61 1.04 1.47 1.73 1.80 1.48 1.07 0.85 1.03 1.31 1.72 2.09 2.44 3.16 3.47 3.42 3.19 3.32 3.24 2.95 3.01 3.38 3.43 2.97 2.74 2.70 2.64
0.27 0.19 0.20 0.24 0.28 0.29 0.45 0.76 1.11 1.60 2.26 3.04 2.92 2.38 2.10 2.31 2.54 2.48 2.73 3.14 3.93 3.63 3.65 3.64 3.74 3.10 2.74 2.67 2.55 2.43 2.18 2.33
0.39 0.37 0.36 0.23 0.24 0.34 0.49 0.59 0.75 1.09 1.24 1.58 2.41 3.18 2.86 3.17 3.64 3.93 3.36 3.14 3.72 4.11 3.80 3.72 4.28 4.34 3.82 3.28 2.86 2.64 2.78 2.81

GFSFLT2_prec_precacc_270.txt.gz
Total_Precipitation_Accumulation
10.58 7.27 6.42 5.67 6.33 4.11 1.79 1.64 1.82 2.19 2.31 2.33 2.63 2.99 2.05 1.53 0.97 0.74 0.73 0.76 0.43 0.38 0.31 0.40 0.58 0.54 0.23 0.26 0.29 0.32 0.39 1.06
6.98 5.70 4.96 4.66 4.82 5.36 3.73 2.52 2.17 1.89 1.86 1.83 1.74 2.26 2.18 1.55 1.05 0.79 0.84 0.74 0.53 0.41 0.50 0.63 0.58 0.56 0.57 0.49 0.40 0.30 0.17 0.30
3.73 2.64 1.87 2.18 2.33 2.74 3.37 3.30 2.71 2.74 2.95 2.18 1.79 1.61 2.16 1.84 1.40 1.12 1.19 1.05 0.77 0.57 0.66 0.67 0.58 0.53 0.48 0.51 0.43 0.37 0.26 0.33
1.71 1.18 0.76 0.74 0.85 0.96 1.51 2.31 2.66 2.31 3.60 2.55 2.25 1.45 1.72 1.63 1.81 1.68 1.77 1.77 0.93 0.96 0.89 0.71 0.64 0.63 0.56 0.52 0.63 0.85 0.80 0.79
1.23 1.10 0.97 1.06 0.86 0.92 1.20 1.70 2.36 2.64 2.84 2.67 2.68 1.83 2.11 1.84 2.01 1.61 1.49 2.22 1.42 1.39 1.00 0.78 0.67 0.68 0.70 0.78 0.68 0.70 1.01 1.17
0.54 0.80 0.98 1.36 1.25 1.07 1.12 1.47 2.20 2.36 1.98 1.81 2.26 1.75 2.02 1.89 1.74 1.59 1.35 2.09 1.67 1.53 1.09 1.01 1.01 1.00 1.00 1.03 0.94 0.70 0.69 0.71
0.60 0.55 0.90 1.02 1.23 1.41 1.44 1.46 1.71 2.01 1.80 1.14 1.77 1.81 1.66 2.15 2.25 2.04 1.57 2.12 1.43 1.05 0.95 0.89 0.91 1.04 1.04 0.97 0.92 1.00 0.71 0.84
0.70 0.69 0.83 0.95 1.07 1.12 1.26 1.53 2.01 1.79 1.71 1.20 1.22 1.53 1.95 2.59 2.50 2.28 1.64 1.67 1.66 1.38 0.90 0.88 0.83 1.03 0.96 0.90 0.79 0.90 0.67 0.65
0.72 1.21 0.69 0.61 0.66 0.81 0.75 0.84 1.18 1.27 1.40 1.22 1.03 1.18 1.50 2.02 2.21 2.05 1.84 1.75 1.48 1.74 1.52 1.26 1.23 1.33 1.04 0.98 0.73 0.75 0.54 0.49
0.78 1.39 1.02 0.65 0.53 0.76 0.74 0.94 1.15 1.37 1.64 1.57 1.15 1.17 1.59 1.89 1.96 2.16 2.43 2.71 2.43 2.16 2.24 1.77 1.40 1.49 1.42 1.00 0.83 0.72 0.65 0.33
0.53 0.86 1.10 1.06 1.03 1.14 1.08 1.10 1.33 1.49 1.66 1.90 1.89 2.12 2.37 2.31 2.34 2.70 3.07 3.07 2.80 2.40 1.94 1.81 1.45 1.45 1.61 1.34 1.08 0.78 0.80 0.68
0.59 0.76 1.25 1.74 1.20 0.85 1.07 1.39 1.30 1.31 1.34 1.66 1.79 1.72 2.13 2.46 2.55 2.24 2.38 2.58 2.58 2.50 2.48 2.30 1.94 1.73 1.83 1.85 1.47 1.29 1.03 0.95
0.65 1.02 1.03 0.77 0.67 0.70 0.93 1.09 1.25 1.37 1.22 1.43 1.88 1.91 2.04 2.62 2.96 3.13 2.61 2.07 2.30 2.42 2.55 2.42 2.24 1.99 2.39 2.41 1.88 1.36 1.17 0.93
0.34 0.23 0.33 0.41 0.51 0.66 0.84 0.96 1.22 1.31 1.47 1.40 1.69 1.80 2.11 2.18 2.56 2.88 2.76 2.24 1.83 1.70 2.11 2.72 2.95 2.74 2.76 2.76 2.62 2.33 1.72 1.34
0.14 0.25 0.45 0.42 0.44 0.61 0.83 1.20 1.47 1.39 1.42 1.24 1.29 1.61 1.97 2.29 2.55 2.56 2.38 2.18 2.04 2.14 2.46 2.88 2.80 2.90 2.75 3.01 2.84 2.25 1.72 1.51
0.22 0.27 0.32 0.27 0.40 0.63 0.65 0.71 0.78 0.66 0.63 0.74 0.80 1.24 1.90 2.59 3.06 2.94 3.15 3.44 3.02 2.85 2.63 2.99 3.60 3.97 4.43 3.84 3.05 2.69 2.38 2.33
0.16 0.30 0.36 0.29 0.40 0.75 0.86 0.84 0.64 0.56 0.56 0.70 0.82 1.05 1.47 2.02 2.68 3.21 3.51 3.59 3.47 3.39 3.24 3.33 3.41 3.31 3.54 3.70 4.05 3.74 3.12 2.55
0.17 0.19 0.32 0.34 0.35 0.61 1.04 1.47 1.73 1.80 1.48 1.07 0.85 1.03 1.31 1.72 2.09 2.44 3.16 3.47 3.42 3.19 3.32 3.24 2.95 3.01 3.38 3.43 2.97 2.74 2.70 2.64
0.27 0.19 0.20 0.24 0.28 0.29 0.45 0.76 1.11 1.60 2.26 3.04 2.92 2.38 2.10 2.31 2.54 2.48 2.73 3.14 3.93 3.63 3.65 3.64 3.74 3.10 2.74 2.67 2.55 2.43 2.18 2.33
0.39 0.37 0.36 0.23 0.24 0.34 0.49 0.59 0.75 1.09 1.24 1.58 2.41 3.18 2.86 3.17 3.64 3.93 3.36 3.14 3.72 4.11 3.80 3.72 4.28 4.34 3.82 3.28 2.86 2.64 2.78 2.81

GFSFLT2_prec_precacc_273.txt.gz
Total_Precipitation_Accumulation
10.58 7.28 6.42 5.67 6.33 4.11 1.79 1.64 1.82 2.19 2.31 2.33 2.63 2.99 2.05 1.53 0.98 0.76 0.74 0.78 0.44 0.38 0.31 0.40 0.58 0.54 0.23 0.27 0.29 0.33 0.40 1.07
7.00 5.72 4.98 4.67 4.82 5.36 3.73 2.52 2.18 1.89 1.87 1.83 1.76 2.29 2.19 1.55 1.05 0.79 0.84 0.75 0.53 0.41 0.50 0.63 0.58 0.56 0.57 0.49 0.40 0.31 0.17 0.31
3.75 2.66 1.94 2.20 2.34 2.74 3.37 3.30 2.73 2.78 3.00 2.24 1.86 1.64 2.16 1.84 1.40 1.12 1.19 1.05 0.77 0.57 0.66 0.67 0.58 0.53 0.48 0.51 0.43 0.37 0.26 0.33
1.73 1.19 0.77 0.76 0.89 0.97 1.51 2.35 2.77 2.51 3.76 2.66 2.29 1.45 1.72 1.63 1.81 1.68 1.77 1.77 0.93 0.96 0.89 0.71 0.64 0.63 0.56 0.52 0.63 0.85 0.80 0.79
1.23 1.10 0.97 1.07 0.87 0.92 1.20 1.73 2.43 2.70 2.88 2.69 2.68 1.83 2.11 1.84 2.01 1.61 1.49 2.22 1.42 1.39 1.00 0.78 0.67 0.68 0.70 0.78 0.68 0.70 1.01 1.17
0.54 0.81 1.08 1.43 1.26 1.10 1.16 1.48 2.20 2.36 1.98 1.81 2.26 1.76 2.03 1.89 1.74 1.59 1.35 2.09 1.67 1.53 1.09 1.01 1.01 1.00 1.00 1.03 0.94 0.70 0.69 0.71
0.60 0.56 1.03 1.24 1.33 1.48 1.47 1.49 1.72 2.02 1.81 1.14 1.77 1.81 1.66 2.15 2.25 2.04 1.57 2.12 1.43 1.05 0.95 0.89 0.91 1.04 1.04 0.97 0.92 1.00 0.71 0.84
0.70 0.71 0.92 1.07 1.17 1.18 1.30 1.56 2.01 1.79 1.71 1.20 1.22 1.53 1.95 2.59 2.50 2.28 1.64 1.67 1.66 1.38 0.90 0.88 0.83 1.03 0.96 0.90 0.79 0.90 0.67 0.65
0.73 1.21 0.69 0.62 0.67 0.82 0.75 0.84 1.18 1.27 1.40 1.22 1.03 1.18 1.50 2.02 2.21 2.05 1.84 1.75 1.48 1.74 1.52 1.26 1.23 1.33 1.04 0.98 0.73 0.75 0.54 0.49
0.78 1.39 1.02 0.65 0.53 0.76 0.74 0.94 1.15 1.37 1.64 1.57 1.15 1.17 1.59 1.89 1.96 2.16 2.43 2.71 2.43 2.16 2.24 1.77 1.40 1.49 1.42 1.00 0.83 0.72 0.65 0.33
0.53 0.86 1.10 1.06 1.03 1.14 1.08 1.10 1.33 1.49 1.66 1.90 1.89 2.12 2.37 2.31 2.34 2.70 3.07 3.07 2.80 2.40 1.94 1.81 1.45 1.45 1.61 1.34 1.08 0.78 0.80 0.68
0.59 0.76 1.25 1.74 1.20 0.85 1.07 1.39 1.30 1.31 1.34 1.66 1.79 1.72 2.13 2.46 2.55 2.24 2.38 2.58 2.58 2.50 2.48 2.30 1.94 1.73 1.83 1.85 1.47 1.29 1.03 0.95
0.65 1.02 1.03 0.77 0.67 0.70 0.93 1.09 1.25 1.37 1.22 1.43 1.88 1.91 2.04 2.62 2.96 3.13 2.61 2.07 2.30 2.42 2.55 2.42 2.24 1.99 2.39 2.41 1.88 1.36 1.17 0.93
0.34 0.23 0.33 0.41 0.51 0.66 0.84 0.96 1.22 1.31 1.47 1.40 1.69 1.80 2.11 2.18 2.56 2.88 2.76 2.24 1.83 1.70 2.11 2.72 2.95 2.74 2.76 2.76 2.62 2.33 1.72 1.34
0.14 0.25 0.45 0.42 0.44 0.61 0.83 1.20 1.47 1.39 1.42 1.24 1.29 1.61 1.97 2.29 2.55 2.56 2.38 2.18 2.04 2.14 2.46 2.88 2.80 2.90 2.75 3.01 2.84 2.25 1.72 1.51
0.22 0.27 0.32 0.27 0.40 0.63 0.65 0.71 0.78 0.66 0.63 0.74 0.80 1.24 1.90 2.59 3.06 2.94 3.15 3.44 3.02 2.85 2.63 2.99 3.60 3.97 4.43 3.84 3.05 2.69 2.38 2.33
0.16 0.30 0.36 0.29 0.40 0.75 0.86 0.84 0.64 0.56 0.56 0.70 0.82 1.05 1.47 2.02 2.68 3.21 3.51 3.59 3.47 3.39 3.24 3.33 3.41 3.31 3.54 3.70 4.05 3.74 3.12 2.55
0.17 0.19 0.32 0.34 0.35 0.61 1.04 1.47 1.73 1.80 1.48 1.07 0.85 1.03 1.31 1.72 2.09 2.44 3.16 3.47 3.42 3.19 3.32 3.24 2.95 3.01 3.38 3.43 2.97 2.74 2.70 2.64
0.27 0.19 0.20 0.24 0.28 0.29 0.45 0.76 1.11 1.60 2.26 3.04 2.92 2.38 2.10 2.31 2.54 2.48 2.73 3.14 3.93 3.63 3.65 3.64 3.74 3.10 2.74 2.67 2.55 2.43 2.18 2.33
0.39 0.37 0.36 0.23 0.24 0.34 0.49 0.59 0.75 1.09 1.24 1.58 2.41 3.18 2.86 3.17 3.64 3.93 3.36 3.14 3.72 4.11 3.80 3.72 4.28 4.34 3.82 3.28 2.86 2.64 2.78 2.81

GFSFLT2_prec_precacc_276.txt.gz
Total_Precipitation_Accumulation
10.58 7.28 6.42 5.67 6.33 4.12 1.79 1.64 1.83 2.19 2.31 2.33 2.63 3.00 2.07 1.55 0.99 0.76 0.75 0.78 0.44 0.38 0.31 0.40 0.58 0.54 0.23 0.27 0.29 0.34 0.41 1.10
7.07 5.74 4.99 4.67 4.83 5.39 3.74 2.53 2.19 1.89 1.87 1.84 1.80 2.34 2.20 1.57 1.07 0.79 0.84 0.75 0.53 0.41 0.50 0.63 0.58 0.56 0.57 0.49 0.40 0.31 0.18 0.33
3.79 2.70 1.96 2.22 2.35 2.77 3.37 3.31 2.74 2.80 3.08 2.36 1.96 1.67 2.17 1.85 1.40 1.12 1.19 1.05 0.77 0.57 0.66 0.67 0.58 0.53 0.48 0.51 0.43 0.37 0.26 0.33
1.78 1.25 0.85 0.78 0.91 0.99 1.52 2.35 2.78 2.52 3.90 2.78 2.33 1.47 1.72 1.63 1.81 1.68 1.77 1.77 0.93 0.96 0.89 0.71 0.64 0.63 0.56 0.52 0.63 0.85 0.80 0.79
1.24 1.12 1.00 1.08 0.89 0.93 1.21 1.78 2.50 2.75 2.91 2.70 2.68 1.83 2.11 1.84 2.01 1.61 1.49 2.22 1.42 1.39 1.00 0.78 0.67 0.68 0.70 0.78 0.68 0.70 1.01 1.17
0.54 0.81 1.08 1.45 1.29 1.11 1.20 1.53 2.21 2.36 1.99 1.81 2.26 1.76 2.03 1.89 1.74 1.59 1.35 2.09 1.67 1.53 1.09 1.01 1.01 1.00 1.00 1.03 0.94 0.70 0.69 0.71
0.60 0.56 1.05 1.27 1.35 1.49 1.49 1.50 1.73 2.02 1.81 1.14 1.77 1.81 1.66 2.15 2.25 2.04 1.57 2.12 1.43 1.05 0.95 0.89 0.91 1.04 1.04 0.97 0.92 1.00 0.71 0.84
0.70 0.71 0.94 1.08 1.20 1.21 1.31 1.56 2.01 1.79 1.71 1.20 1.22 1.53 1.95 2.59 2.50 2.28 1.64 1.67 1.66 1.38 0.90 0.88 0.83 1.03 0.96 0.90 0.79 0.90 0.67 0.65
0.73 1.21 0.69 0.62 0.67 0.82 0.75 0.84 1.18 1.27 1.40 1.22 1.03 1.18 1.50 2.02 2.21 2.05 1.84 1.75 1.48 1.74 1.52 1.26 1.23 1.33 1.04 0.98 0.73 0.75 0.54 0.49
0.78 1.39 1.02 0.65 0.53 0.76 0.74 0.94 1.15 1.37 1.64 1.57 1.15 1.17 1.59 1.89 1.96 2.16 2.43 2.71 2.43 2.16 2.24 1.77 1.40 1.49 1.42 1.00 0.83 0.72 0.65 0.33
0.53 0.86 1.10 1.06 1.03 1.14 1.08 1.10 1.33 1.49 1.66 1.90 1.89 2.12 2.37 2.31 2.34 2.70 3.07 3.07 2.80 2.40 1.94 1.81 1.45 1.45 1.61 1.34 1.08 0.78 0.80 0.68
0.59 0.76 1.25 1.74 1.20 0.85 1.07 1.39 1.30 1.31 1.34 1.66 1.79 1.72 2.13 2.46 2.55 2.24 2.38 2.58 2.58 2.50 2.48 2.30 1.94 1.73 1.83 1.85 1.47 1.29 1.03 0.95
0.65 1.02 1.03 0.77 0.67 0.70 0.93 1.09 1.25 1.37 1.22 1.43 1.88 1.91 2.04 2.62 2.96 3.13 2.61 2.07 2.30 2.42 2.55 2.42 2.24 1.99 2.39 2.41 1.88 1.36 1.17 0.93
0.34 0.23 0.33 0.41 0.51 0.66 0.84 0.96 1.22 1.31 1.47 1.40 1.69 1.80 2.11 2.18 2.56 2.88 2.76 2.24 1.83 1.70 2.11 2.72 2.95 2.74 2.76 2.76 2.62 2.33 1.72 1.34
0.14 0.25 0.45 0.42 0.44 0.61 0.83 1.20 1.47 1.39 1.42 1.24 1.29 1.61 1.97 2.29 2.55 2.56 2.38 2.18 2.04 2.14 2.46 2.88 2.80 2.90 2.75 3.01 2.84 2.25 1.72 1.51
0.22 0.27 0.32 0.27 0.40 0.63 0.65 0.71 0.78 0.66 0.63 0.74 0.80 1.24 1.90 2.59 3.06 2.94 3.15 3.44 3.02 2.85 2.63 2.99 3.60 3.97 4.43 3.84 3.05 2.69 2.38 2.33
0.16 0.30 0.36 0.29 0.40 0.75 0.86 0.84 0.64 0.56 0.56 0.70 0.82 1.05 1.47 2.02 2.68 3.21 3.51 3.59 3.47 3.39 3.24 3.33 3.41 3.31 3.54 3.70 4.05 3.74 3.12 2.55
0.17 0.19 0.32 0.34 0.35 0.61 1.04 1.47 1.73 1.80 1.48 1.07 0.85 1.03 1.31 1.72 2.09 2.44 3.16 3.47 3.42 3.19 3.32 3.24 2.95 3.01 3.38 3.43 2.97 2.74 2.70 2.64
0.27 0.19 0.20 0.24 0.28 0.29 0.45 0.76 1.11 1.60 2.26 3.04 2.92 2.38 2.10 2.31 2.54 2.48 2.73 3.14 3.93 3.63 3.65 3.64 3.74 3.10 2.74 2.67 2.55 2.43 2.18 2.33
0.39 0.37 0.36 0.23 0.24 0.34 0.49 0.59 0.75 1.09 1.24 1.58 2.41 3.18 2.86 3.17 3.64 3.93 3.36 3.14 3.72 4.11 3.80 3.72 4.28 4.34 3.82 3.28 2.86 2.64 2.78 2.81

GFSFLT2_prec_precacc_279.txt.gz
Total_Precipitation_Accumulation
10.58 7.28 6.42 5.67 6.33 4.12 1.79 1.64 1.83 2.19 2.31 2.33 2.64 3.02 2.07 1.55 0.99 0.76 0.75 0.78 0.44 0.38 0.31 0.40 0.58 0.54 0.23 0.27 0.29 0.34 0.41 1.15
7.08 5.75 4.99 4.67 4.83 5.39 3.74 2.53 2.19 1.89 1.87 1.84 1.83 2.36 2.21 1.57 1.07 0.80 0.84 0.75 0.53 0.41 0.50 0.63 0.58 0.56 0.57 0.49 0.40 0.31 0.18 0.33
3.82 2.73 1.96 2.22 2.35 2.77 3.37 3.31 2.74 2.80 3.08 2.37 1.98 1.69 2.17 1.85 1.40 1.12 1.19 1.05 0.77 0.57 0.66 0.67 0.58 0.53 0.48 0.51 0.43 0.37 0.26 0.33
1.78 1.26 0.85 0.79 0.91 0.99 1.52 2.35 2.78 2.52 3.90 2.80 2.34 1.47 1.72 1.63 1.81 1.68 1.77 1.77 0.93 0.96 0.89 0.71 0.64 0.63 0.56 0.52 0.63 0.85 0.80 0.79
1.24 1.12 1.00 1.09 0.89 0.94 1.21 1.78 2.50 2.75 2.92 2.71 2.68 1.83 2.11 1.84 2.01 1.61 1.49 2.22 1.42 1.39 1.00 0.78 0.67 0.68 0.70 0.78 0.68 0.70 1.01 1.17
0.54 0.81 1.08 1.45 1.29 1.11 1.21 1.53 2.22 2.36 1.99 1.81 2.26 1.76 2.03 1.89 1.74 1.59 1.35 2.09 1.67 1.53 1.09 1.01 1.01 1.00 1.00 1.03 0.94 0.70 0.69 0.71
0.60 0.56 1.05 1.27 1.35 1.49 1.49 1.50 1.73 2.02 1.81 1.14 1.77 1.81 1.66 2.15 2.25 2.04 1.57 2.12 1.43 1.05 0.95 0.89 0.91 1.04 1.04 0.97 0.92 1.00 0.71 0.84
0.70 0.71 0.94 1.08 1.20 1.21 1.31 1.56 2.01 1.79 1.71 1.20 1.22 1.53 1.95 2.59 2.50 2.28 1.64 1.67 1.66 1.38 0.90 0.88 0.83 1.03 0.96 0.90 0.79 0.90 0.67 0.65
0.73 1.21 0.69 0.62 0.67 0.82 0.75 0.84 1.18 1.27 1.40 1.22 1.03 1.18 1.50 2.02 2.21 2.05 1.84 1.75 1.48 1.74 1.52 1.26 1.23 1.33 1.04 0.98 0.73 0.75 0.54 0.49
0.78 1.39 1.02 0.65 0.53 0.76 0.74 0.94 1.15 1.37 1.64 1.57 1.15 1.17 1.59 1.89 1.96 2.16 2.43 2.71 2.43 2.16 2.24 1.77 1.40 1.49 1.42 1.00 0.83 0.72 0.65 0.33
0.53 0.86 1.10 1.06 1.03 1.14 1.08 1.10 1.33 1.49 1.66 1.90 1.89 2.12 2.37 2.31 2.34 2.70 3.07 3.07 2.80 2.40 1.94 1.81 1.45 1.45 1.61 1.34 1.08 0.78 0.80 0.68
0.59 0.76 1.25 1.74 1.20 0.85 1.07 1.39 1.30 1.31 1.34 1.66 1.79 1.72 2.13 2.46 2.55 2.24 2.38 2.58 2.58 2.50 2.48 2.30 1.94 1.73 1.83 1.85 1.47 1.29 1.03 0.95
0.65 1.02 1.03 0.77 0.67 0.70 0.93 1.09 1.25 1.37 1.22 1.43 1.88 1.91 2.04 2.62 2.96 3.13 2.61 2.07 2.30 2.42 2.55 2.42 2.24 1.99 2.39 2.41 1.88 1.36 1.17 0.93
0.34 0.23 0.33 0.41 0.51 0.66 0.84 0.96 1.22 1.31 1.47 1.40 1.69 1.80 2.11 2.18 2.56 2.88 2.76 2.24 1.83 1.70 2.11 2.72 2.95 2.74 2.76 2.76 2.62 2.33 1.72 1.34
0.14 0.25 0.45 0.42 0.44 0.61 0.83 1.20 1.47 1.39 1.42 1.24 1.29 1.61 1.97 2.29 2.55 2.56 2.38 2.18 2.04 2.14 2.46 2.88 2.80 2.90 2.75 3.01 2.84 2.25 1.72 1.51
0.22 0.27 0.32 0.27 0.40 0.63 0.65 0.71 0.78 0.66 0.63 0.74 0.80 1.24 1.90 2.59 3.06 2.94 3.15 3.44 3.02 2.85 2.63 2.99 3.60 3.97 4.43 3.84 3.05 2.69 2.38 2.33
0.16 0.30 0.36 0.29 0.40 0.75 0.86 0.84 0.64 0.56 0.56 0.70 0.82 1.05 1.47 2.02 2.68 3.21 3.51 3.59 3.47 3.39 3.24 3.33 3.41 3.31 3.54 3.70 4.05 3.74 3.12 2.55
0.17 0.19 0.32 0.34 0.35 0.61 1.04 1.47 1.73 1.80 1.48 1.07 0.85 1.03 1.31 1.72 2.09 2.44 3.16 3.47 3.42 3.19 3.32 3.24 2.95 3.01 3.38 3.43 2.97 2.74 2.70 2.64
0.27 0.19 0.20 0.24 0.28 0.29 0.45 0.76 1.11 1.60 2.26 3.04 2.92 2.38 2.10 2.31 2.54 2.48 2.73 3.14 3.93 3.63 3.65 3.64 3.74 3.10 2.74 2.67 2.55 2.43 2.18 2.33
0.39 0.37 0.36 0.23 0.24 0.34 0.49 0.59 0.75 1.09 1.24 1.58 2.41 3.18 2.86 3.17 3.64 3.93 3.36 3.14 3.72 4.11 3.80 3.72 4.28 4.34 3.82 3.28 2.86 2.64 2.78 2.81

GFSFLT2_prec_precacc_282.txt.gz
Total_Precipitation_Accumulation
10.58 7.28 6.42 5.67 6.33 4.12 1.79 1.64 1.83 2.19 2.31 2.33 2.64 3.02 2.07 1.55 0.99 0.76 0.75 0.78 0.44 0.38 0.31 0.40 0.58 0.54 0.23 0.27 0.29 0.34 0.41 1.15
7.08 5.75 4.99 4.67 4.83 5.39 3.74 2.53 2.19 1.89 1.87 1.84 1.83 2.36 2.21 1.57 1.07 0.80 0.84 0.75 0.53 0.41 0.50 0.63 0.58 0.56 0.57 0.49 0.40 0.31 0.18 0.33
3.82 2.75 1.97 2.22 2.35 2.77 3.37 3.31 2.74 2.80 3.08 2.37 1.98 1.69 2.17 1.85 1.40 1.12 1.19 1.05 0.77 0.57 0.66 0.67 0.58 0.53 0.48 0.51 0.43 0.37 0.26 0.33
1.79 1.26 0.85 0.79 0.91 0.99 1.52 2.35 2.78 2.52 3.90 2.80 2.34 1.47 1.72 1.63 1.81 1.68 1.77 1.77 0.93 0.96 0.89 0.71 0.64 0.63 0.56 0.52 0.63 0.85 0.80 0.79
1.25 1.12 1.00 1.09 0.89 0.94 1.21 1.78 2.50 2.75 2.92 2.71 2.68 1.83 2.11 1.84 2.01 1.61 1.49 2.22 1.42 1.39 1.00 0.78 0.67 0.68 0.70 0.78 0.68 0.70 1.01 1.17
0.54 0.81 1.08 1.45 1.29 1.11 1.21 1.53 2.22 2.36 1.99 1.81 2.26 1.76 2.03 1.89 1.74 1.59 1.35 2.09 1.67 1.53 1.09 1.01 1.01 1.00 1.00 1.03 0.94 0.70 0.69 0.71
0.60 0.56 1.05 1.27 1.35 1.49 1.49 1.50 1.73 2.02 1.81 1.14 1.77 1.81 1.66 2.15 2.25 2.04 1.57 2.12 1.43 1.05 0.95 0.89 0.91 1.04 1.04 0.97 0.92 1.00 0.71 0.84
0.70 0.71 0.94 1.08 1.20 1.21 1.31 1.56 2.01 1.79 1.71 1.20 1.22 1.53 1.95 2.59 2.50 2.28 1.64 1.67 1.66 1.38 0.90 0.88 0.83 1.03 0.96 0.90 0.79 0.90 0.67 0.65
0.73 1.21 0.69 0.62 0.67 0.82 0.75 0.84 1.18 1.27 1.40 1.22 1.03 1.18 1.50 2.02 2.21 2.05 1.84 1.75 1.48 1.74 1.52 1.26 1.23 1.33 1.04 0.98 0.73 0.75 0.54 0.49
0.78 1.39 1.02 0.65 0.53 0.76 0.74 0.94 1.15 1.37 1.64 1.57 1.15 1.17 1.59 1.89 1.96 2.16 2.43 2.71 2.43 2.16 2.24 1.77 1.40 1.49 1.42 1.00 0.83 0.72 0.65 0.33
0.53 0.86 1.10 1.06 1.03 1.14 1.08 1.10 1.33 1.49 1.66 1.90 1.89 2.12 2.37 2.31 2.34 2.70 3.07 3.07 2.80 2.40 1.94 1.81 1.45 1.45 1.61 1.34 1.08 0.78 0.80 0.68
0.59 0.76 1.25 1.74 1.20 0.85 1.07 1.39 1.30 1.31 1.34 1.66 1.79 1.72 2.13 2.46 2.55 2.24 2.38 2.58 2.58 2.50 2.48 2.30 1.94 1.73 1.83 1.85 1.47 1.29 1.03 0.95
0.65 1.02 1.03 0.77 0.67 0.70 0.93 1.09 1.25 1.37 1.22 1.43 1.88 1.91 2.04 2.62 2.96 3.13 2.61 2.07 2.30 2.42 2.55 2.42 2.24 1.99 2.39 2.41 1.88 1.36 1.17 0.93
0.34 0.23 0.33 0.41 0.51 0.66 0.84 0.96 1.22 1.31 1.47 1.40 1.69 1.80 2.11 2.18 2.56 2.88 2.76 2.24 1.83 1.70 2.11 2.72 2.95 2.74 2.76 2.76 2.62 2.33 1.72 1.34
0.14 0.25 0.45 0.42 0.44 0.61 0.83 1.20 1.47 1.39 1.42 1.24 1.29 1.61 1.97 2.29 2.55 2.56 2.38 2.18 2.04 2.14 2.46 2.88 2.80 2.90 2.75 3.01 2.84 2.25 1.72 1.51
0.22 0.27 0.32 0.27 0.40 0.63 0.65 0.71 0.78 0.66 0.63 0.74 0.80 1.24 1.90 2.59 3.06 2.94 3.15 3.44 3.02 2.85 2.63 2.99 3.60 3.97 4.43 3.84 3.05 2.69 2.38 2.33
0.16 0.30 0.36 0.29 0.40 0.75 0.86 0.84 0.64 0.56 0.56 0.70 0.82 1.05 1.47 2.02 2.68 3.21 3.51 3.59 3.47 3.39 3.24 3.33 3.41 3.31 3.54 3.70 4.05 3.74 3.12 2.55
0.17 0.19 0.32 0.34 0.35 0.61 1.04 1.47 1.73 1.80 1.48 1.07 0.85 1.03 1.31 1.72 2.09 2.44 3.16 3.47 3.42 3.19 3.32 3.24 2.95 3.01 3.38 3.43 2.97 2.74 2.70 2.64
0.27 0.19 0.20 0.24 0.28 0.29 0.45 0.76 1.11 1.60 2.26 3.04 2.92 2.38 2.10 2.31 2.54 2.48 2.73 3.14 3.93 3.63 3.65 3.64 3.74 3.10 2.74 2.67 2.55 2.43 2.18 2.33
0.39 0.37 0.36 0.23 0.24 0.34 0.49 0.59 0.75 1.09 1.24 1.58 2.41 3.18 2.86 3.17 3.64 3.93 3.36 3.14 3.72 4.11 3.80 3.72 4.28 4.34 3.82 3.28 2.86 2.64 2.78 2.81